Meteo Giornale » Osservazioni meteo Cina » Fuzhou
ore: 15:00 - Osservazioni Meteo Fuzhou
Lat. 26° 5' N Lon. 119° 17' E Alt. 85 metri s.l.m.
29 °C
Molto Nuvoloso
Temp. 24 Ore
26 °C
31 °C
Est/Nord-Est
32.4 Km/h
Dew point 26 °C
Umidità 83 %
Visibilità 10 Km
Il sole sorge alle ore 05:42
Il sole tramonta alle ore 18:23
| Data e Ora | Cielo e Fenomeni | T °C | DP °C | Um. % | Pres. hPa | Vis. km | Vento km/h | |
|---|---|---|---|---|---|---|---|---|
| Oggi h: 15:00 | Molto Nuvoloso | 29 | 26 | 83 | 1002 | 10 | E/NE 32.4 | |
| Oggi h: 14:00 | Molto Nuvoloso | 30 | 26 | 79 | 1003 | 10 | E/NE 32.4 | |
| Oggi h: 13:00 | Molto Nuvoloso | 31 | 26 | 74 | 1003 | 10 | E/NE 32.4 | |
| Oggi h: 12:00 | Molto Nuvoloso | 31 | 26 | 74 | 1003 | 10 | E/NE 36 | |
| Oggi h: 11:00 | Molto Nuvoloso | 30 | 26 | 79 | 1003 | 10 | E/NE 32.4 | |
| Oggi h: 10:00 | Pioggia | 29 | 26 | 83 | 1003 | 10 | E/NE 36 | |
| Oggi h: 09:00 | Pioggia | 29 | 26 | 83 | 1003 | 9 | E/NE 36 | |
| Oggi h: 08:00 | Molto Nuvoloso | 28 | 25 | 83 | 1003 | 10 | NE 18 | |
| Oggi h: 07:00 | Molto Nuvoloso | 28 | 25 | 83 | 1003 | 10 | E/NE 21.6 | |
| Oggi h: 06:00 | Molto Nuvoloso | 28 | 24 | 78 | 1002 | 10 | E/NE 14.4 | |
| Oggi h: 05:00 | Molto Nuvoloso | 27 | 25 | 88 | 1002 | 10 | E/NE 14.4 | |
| Oggi h: 04:00 | Molto Nuvoloso | 26 | 25 | 94 | 1002 | 10 | E 10.8 | |
| Oggi h: 03:00 | Pioggia | 26 | 25 | 94 | 1002 | 6 | E 28.8 | |
| Oggi h: 02:00 | Pioggia | 27 | 26 | 94 | 1002 | 6 | E/NE 36 | |
| Oggi h: 01:00 | Pioggia | 28 | 25 | 83 | 1002 | 7 | E/NE 32.4 | |
| Oggi h: 00:00 | Pioggia | 27 | 26 | 94 | 1002 | 9 | NE 39.6 | |
| Ieri h: 23:00 | Molto Nuvoloso | 29 | 25 | 79 | 1002 | 10 | E/NE 32.4 | |
| Ieri h: 22:00 | Molto Nuvoloso | 29 | 26 | 83 | 1002 | 10 | E/NE 32.4 | |
| Ieri h: 21:00 | Molto Nuvoloso | 29 | 25 | 79 | 1003 | 10 | E/NE 32.4 | |
| Ieri h: 20:00 | Molto Nuvoloso | 29 | 25 | 79 | 1002 | 10 | E/NE 32.4 | |
| Ieri h: 19:00 | Molto Nuvoloso | 29 | 25 | 79 | 1002 | 10 | E/NE 32.4 | |
| Ieri h: 18:00 | Molto Nuvoloso | 29 | 25 | 79 | 1001 | 10 | NE 39.6 | |
| Ieri h: 17:00 | Pioggia | 29 | 26 | 83 | 1001 | 9 | NE 36 | |



